contact:dominique.lefevre@mio.osupytheas.fr, maurice.libes@osupytheas.fr
Project:EMSO Ligure-ouest http://www.emso-fr.org/EMSO-France
Sensor Aquadopp, line 13 Serial AQD14315 
DOI : "https://doi.org/10.17882/74513; https://doi.org/10.17882/83244" 
Title:EMSO Ligure Ouest : Data ligne ALBATROSS capteur AQUADOPP - deploiement 2021
Id,Date,Profondeur,Latitude,Longitude,X_East,Y_North,Z_Up,Amplitude_X,Amplitude_Y,Amplitude_Z,Batterie,SoundSpeed,Heading,Pitch,Roll,Pressure,Temperature,Speed,Direction
, , m, degrees North, degrees East, m.s-1, m.s-1,m.s-1, 1, 1, 1, Volt, m.s-1, degree, degree, degree, dbar, degree_C, m.s-1, degree
11,2021-08-05T22:00:00,2200.0,42.79,6.0312,0.026,-0.015,0.0,54.0,56.0,59.0,13.1,1504.2,121.1,-0.4,0.0,2193.184,13.16,0.03,120.0
11,2021-08-05T22:30:00,2200.0,42.79,6.0312,0.018,-0.017,0.02,55.0,57.0,59.0,13.1,1504.2,117.7,-0.4,0.2,2193.175,13.16,0.024,133.4
11,2021-08-05T23:00:00,2200.0,42.79,6.0312,0.026,-0.016,0.004,56.0,59.0,59.0,13.1,1504.2,112.8,-0.1,-0.1,2193.166,13.16,0.03,121.6
11,2021-08-05T23:30:00,2200.0,42.79,6.0312,0.024,-0.024,0.012,57.0,59.0,59.0,13.1,1504.2,114.7,-0.2,0.1,2193.165,13.16,0.033,135.0
11,2021-08-06T00:00:00,2200.0,42.79,6.0312,0.024,-0.029,-0.011,57.0,59.0,59.0,13.1,1504.2,113.0,-0.4,0.2,2193.129,13.16,0.037,140.4
11,2021-08-06T00:30:00,2200.0,42.79,6.0312,0.032,-0.027,0.014,57.0,58.0,60.0,13.1,1504.2,108.6,-0.1,-0.1,2193.108,13.16,0.041,130.2
11,2021-08-06T01:00:00,2200.0,42.79,6.0312,0.04,-0.022,0.003,55.0,58.0,59.0,13.1,1504.2,109.9,-0.1,0.1,2193.105,13.16,0.045,118.8
11,2021-08-06T01:30:00,2200.0,42.79,6.0312,0.017,-0.028,0.004,55.0,58.0,58.0,13.1,1504.2,114.6,-0.6,0.2,2193.176,13.16,0.032,148.7
11,2021-08-06T02:00:00,2200.0,42.79,6.0312,0.035,-0.029,0.023,56.0,59.0,62.0,13.1,1504.2,112.6,0.1,0.0,2193.132,13.16,0.045,129.6
11,2021-08-06T02:30:00,2200.0,42.79,6.0312,0.034,-0.025,0.012,55.0,59.0,59.0,13.1,1504.2,113.4,-0.3,-0.1,2193.157,13.16,0.042,126.3
11,2021-08-06T03:00:00,2200.0,42.79,6.0312,0.029,-0.024,0.013,56.0,60.0,61.0,13.1,1504.2,109.1,-0.3,0.1,2193.147,13.16,0.037,129.6
11,2021-08-06T03:30:00,2200.0,42.79,6.0312,0.02,-0.035,0.0,56.0,59.0,62.0,13.1,1504.2,113.5,-0.4,-0.1,2193.173,13.16,0.04,150.3
11,2021-08-06T04:00:00,2200.0,42.79,6.0312,0.02,-0.031,-0.003,56.0,59.0,61.0,13.1,1504.2,109.2,0.0,-0.1,2193.174,13.16,0.036,147.2
11,2021-08-06T04:30:00,2200.0,42.79,6.0312,0.024,-0.026,-0.002,57.0,61.0,62.0,13.1,1504.2,111.3,-0.2,0.2,2193.194,13.16,0.035,137.3
11,2021-08-06T05:00:00,2200.0,42.79,6.0312,0.017,-0.023,-0.01,58.0,61.0,61.0,13.1,1504.2,118.3,0.0,-0.2,2193.194,13.16,0.028,143.5
11,2021-08-06T05:30:00,2200.0,42.79,6.0312,0.009,-0.03,0.003,58.0,60.0,61.0,13.1,1504.2,114.8,-0.3,0.2,2193.194,13.16,0.031,163.3
11,2021-08-06T06:00:00,2200.0,42.79,6.0312,0.005,-0.022,0.011,59.0,59.0,63.0,13.1,1504.2,115.4,-0.3,-0.1,2193.226,13.16,0.022,167.2
11,2021-08-06T06:30:00,2200.0,42.79,6.0312,0.018,-0.015,0.0,57.0,61.0,63.0,13.1,1504.2,114.7,-0.2,0.2,2193.21,13.16,0.023,129.8
11,2021-08-06T07:00:00,2200.0,42.79,6.0312,0.008,-0.028,-0.004,56.0,59.0,60.0,13.1,1504.2,115.2,-0.4,-0.1,2193.233,13.16,0.029,164.1
11,2021-08-06T07:30:00,2200.0,42.79,6.0312,0.018,-0.02,0.004,58.0,61.0,62.0,13.1,1504.2,116.7,-0.3,0.1,2193.195,13.16,0.026,138.0
11,2021-08-06T08:00:00,2200.0,42.79,6.0312,0.013,-0.016,0.011,59.0,62.0,62.0,13.1,1504.2,121.1,-0.2,-0.2,2193.207,13.16,0.02,140.9
11,2021-08-06T08:30:00,2200.0,42.79,6.0312,0.017,-0.016,0.001,59.0,63.0,65.0,13.1,1504.2,122.3,0.0,-0.1,2193.167,13.16,0.023,133.3
11,2021-08-06T09:00:00,2200.0,42.79,6.0312,0.003,-0.01,0.016,58.0,60.0,60.0,13.1,1504.2,123.8,-0.4,-0.2,2193.114,13.16,0.01,163.3
11,2021-08-06T09:30:00,2200.0,42.79,6.0312,0.01,-0.005,0.012,58.0,60.0,60.0,13.1,1504.2,122.4,-0.1,-0.1,2193.125,13.16,0.011,116.6
11,2021-08-06T10:00:00,2200.0,42.79,6.0312,0.014,-0.004,0.018,58.0,62.0,64.0,13.1,1504.2,124.1,-0.2,0.2,2193.144,13.16,0.014,105.9
11,2021-08-06T10:30:00,2200.0,42.79,6.0312,0.023,-0.008,0.012,60.0,62.0,61.0,13.1,1504.2,125.2,-0.4,0.1,2193.074,13.16,0.024,109.2
11,2021-08-06T11:00:00,2200.0,42.79,6.0312,0.017,-0.008,0.014,60.0,61.0,63.0,13.1,1504.2,128.1,-0.3,-0.2,2193.101,13.16,0.018,115.2
11,2021-08-06T11:30:00,2200.0,42.79,6.0312,0.026,-0.007,0.015,57.0,59.0,60.0,13.1,1504.2,126.2,-0.2,0.0,2193.121,13.16,0.026,105.1
11,2021-08-06T12:00:00,2200.0,42.79,6.0312,0.02,0.003,0.005,58.0,59.0,62.0,13.1,1504.2,126.0,0.0,0.1,2193.08,13.16,0.02,81.5
11,2021-08-06T12:30:00,2200.0,42.79,6.0312,0.036,-0.001,-0.002,56.0,62.0,60.0,13.1,1504.2,125.3,-0.1,-0.2,2193.095,13.16,0.036,91.6
11,2021-08-06T13:00:00,2200.0,42.79,6.0312,0.031,-0.014,0.007,55.0,58.0,60.0,13.1,1504.2,117.4,-0.5,0.2,2193.072,13.16,0.034,114.3
11,2021-08-06T13:30:00,2200.0,42.79,6.0312,0.037,-0.012,0.011,56.0,59.0,60.0,13.1,1504.2,113.3,-0.2,-0.1,2193.073,13.16,0.038,108.0
11,2021-08-06T14:00:00,2200.0,42.79,6.0312,0.039,-0.012,0.002,55.0,58.0,60.0,13.1,1504.2,113.3,-0.5,-0.1,2193.131,13.16,0.04,107.1
11,2021-08-06T14:30:00,2200.0,42.79,6.0312,0.05,-0.017,0.015,54.0,57.0,59.0,13.1,1504.2,112.4,0.0,-0.2,2193.134,13.16,0.052,108.8
11,2021-08-06T15:00:00,2200.0,42.79,6.0312,0.047,-0.022,0.011,57.0,59.0,59.0,13.1,1504.2,109.0,-0.2,-0.2,2193.14,13.16,0.051,115.1
11,2021-08-06T15:30:00,2200.0,42.79,6.0312,0.04,-0.035,-0.009,55.0,60.0,60.0,13.1,1504.2,114.6,-0.5,0.0,2193.183,13.16,0.053,131.2
11,2021-08-06T16:00:00,2200.0,42.79,6.0312,0.035,-0.032,0.009,55.0,58.0,60.0,13.1,1504.2,125.5,-0.3,0.1,2193.225,13.16,0.047,132.4
11,2021-08-06T16:30:00,2200.0,42.79,6.0312,0.051,-0.013,0.03,56.0,58.0,59.0,13.1,1504.2,107.2,-0.2,-0.1,2193.238,13.16,0.052,104.3
11,2021-08-06T17:00:00,2200.0,42.79,6.0312,0.038,-0.039,-0.011,58.0,61.0,62.0,13.1,1504.2,121.5,-0.3,0.2,2193.268,13.16,0.054,135.7
11,2021-08-06T17:30:00,2200.0,42.79,6.0312,0.042,-0.025,0.0,58.0,60.0,64.0,13.1,1504.2,105.2,-0.3,0.1,2193.268,13.16,0.048,120.8
11,2021-08-06T18:00:00,2200.0,42.79,6.0312,0.043,-0.044,-0.006,60.0,62.0,63.0,13.1,1504.2,120.4,-0.3,0.2,2193.329,13.16,0.061,135.7
11,2021-08-06T18:30:00,2200.0,42.79,6.0312,0.036,-0.058,0.014,58.0,61.0,63.0,13.1,1504.2,130.4,-0.4,0.3,2193.271,13.16,0.068,148.2
11,2021-08-06T19:00:00,2200.0,42.79,6.0312,0.021,-0.043,0.017,60.0,60.0,63.0,13.1,1504.2,113.4,-0.3,0.0,2193.306,13.16,0.047,154.0
11,2021-08-06T19:30:00,2200.0,42.79,6.0312,0.032,-0.046,0.017,59.0,60.0,64.0,13.1,1504.2,117.2,-0.4,0.0,2193.32,13.16,0.056,145.2
11,2021-08-06T20:00:00,2200.0,42.79,6.0312,0.003,-0.031,0.006,59.0,62.0,63.0,13.1,1504.2,124.7,-0.3,0.2,2193.323,13.16,0.031,174.5
11,2021-08-06T20:30:00,2200.0,42.79,6.0312,0.005,-0.035,0.017,58.0,61.0,61.0,13.1,1504.2,123.5,-0.1,0.1,2193.226,13.16,0.035,171.9
11,2021-08-06T21:00:00,2200.0,42.79,6.0312,0.007,-0.025,0.013,57.0,60.0,61.0,13.1,1504.2,119.2,0.1,0.1,2193.269,13.16,0.025,164.4
